Regional Weather Roundup
Issued by NWS

Home | Current Version | Previous Version | Graphics & Text | Print | Product List | Glossary Off
Versions: 1 2 3 4 5 6 7 8 9 10 11 12 13 14 15 16 17 18 19 20 21 22 23 24 25 26 27 28 29 30 31 32 33 34 35 36 37 38 39 40 41 42 43 44 45 46 47 48 49 50

000
ASUS43 KIND 291009
RWRIN

WEATHER ROUNDUP FOR INDIANA
NATIONAL WEATHER SERVICE INDIANAPOLIS IN
600 AM EDT MON MAY 29 2017

NOTE: "FAIR" INDICATES FEW OR NO CLOUDS BELOW 12,000 FEET WITH NO
SIGNIFICANT WEATHER AND/OR OBSTRUCTIONS TO VISIBILITY.

* - STATION DOES NOT REPORT WEATHER SUCH AS PRECIPITATION OR FOG.

+ - STATION NOT QUALITY CONTROLLED BY THE NATIONAL WEATHER SERVICE.
    USE DATA WITH CAUTION...ESPECIALLY DEWPOINT AND RELATIVE
    HUMIDITY OBSERVATIONS.

INZ001>003-010>013-019-020-291100-
NORTHWEST INDIANA

CITY           SKY/WX    TMP DP  RH WIND       PRES   REMARKS
GARY /AIRPORT/ PTCLDY    59  50  72 CALM      29.79S
KNOX *+        CLOUDY    57  45  62 S6        29.80S
LA PORTE +     CLOUDY    60  52  75 W6        29.80S
MICHIGAN CITY+ MOCLDY    55  52  88 CALM      29.79S
MONTICELLO +   CLOUDY    58  54  84 SW7       29.81S
RENSSELAER +   CLEAR     57  52  82 S6        29.82R
VALPARAISO     CLOUDY    61  53  75 W3        29.79S

$$

LMZ046-743>745-291100-
SOUTHERN LAKE MICHIGAN

STATION/POSITION TIME  TEMP    WIND        PRES    WAVE
                       AIR SEA DIR/SP/G            HT
                 (UTC) (F)     (DEG/KT/KT) (MB)    (FT)
BURNS HARBOR     0940   63     210/ 11/ 13 1008.8F
MICHIGAN CITY    0940   63     200/ 11/ 12   N/A
5NW MICH CITY    1000   59 57  220/  6/  6   N/A     1

$$

INZ004-005-014>016-021>024-291100-
NORTH CENTRAL INDIANA

CITY           SKY/WX    TMP DP  RH WIND       PRES   REMARKS
GOSHEN         MOCLDY    58  52  80 SW8       29.80R
LOGANSPORT +   CLOUDY    57  54  88 SW7       29.83R
PERU/GRISSOM   PTCLDY    56  56 100 SW7       29.82R
ROCHESTER +    PTCLDY    61  55  82 SW3       29.82R
SOUTH BEND     MOCLDY    56  53  90 SW9       29.80R
WARSAW +       MOCLDY    55  52  88 CALM      29.81R

$$

INZ006>009-017-018-025>027-291100-
NORTHEAST INDIANA

CITY           SKY/WX    TMP DP  RH WIND       PRES   REMARKS
ANGOLA *+      CLEAR     55  46  71 CALM      29.79S
AUBURN +       CLEAR     57  54  88 CALM      29.81S
FORT WAYNE     PTCLDY    56  53  90 SW5       29.81S
HUNTINGTON +   CLEAR     53  52  95 CALM      29.82R
KENDALLVILLE + PTCLDY    57  55  91 CALM      29.81R

$$

INZ028-029-035-036-043>045-051>053-291100-
WEST CENTRAL INDIANA

CITY           SKY/WX    TMP DP  RH WIND       PRES   REMARKS
CRAWFORDSVL +  CLEAR    -22 -22 100 SW6       29.86S WCI -38
GREENCASTLE +  CLEAR     55  54  94 CALM      29.88R
LAFAYETTE      PTCLDY    55  54  96 CALM      29.83R
TERRE HAUTE    PTCLDY    60  54  80 SW7       29.88R

$$

INZ030>032-037>040-046>048-054>057-064-065-291100-
CENTRAL INDIANA

CITY           SKY/WX    TMP DP  RH WIND       PRES   REMARKS
CP ATTERBURY + CLOUDY    55  55 100 SW6       29.90R
FRANKFORT +    PTCLDY    60  55  84 W5        29.86R
GREENWOOD *+   PTCLDY    59  56  89 SW3       29.88R
INDIANAPOLIS   PTCLDY    57  55  93 SW8       29.87R
-EAGLE CREEK   CLEAR     56  53  90 CALM      29.86R
KOKOMO +       PTCLDY    58  54  86 SW7       29.84R
MARION +       CLEAR     55  52  88 SW7       29.85R
MT COMFORT *+    N/A    N/A N/A N/A MISG        N/A
SHELBYVILLE    CLEAR     59  56  89 S6        29.87R
ZIONSVILLE +   CLEAR     55  52  89 SW6       29.87R

$$

INZ033-034-041-042-049-050-058-059-291100-
EAST CENTRAL INDIANA

CITY           SKY/WX    TMP DP  RH WIND       PRES   REMARKS
MUNCIE         CLEAR     61  58  90 SW7       29.84S
RICHMOND +     CLEAR     57  57 100 SW7       29.88R FOG

$$

INZ060-061-067>069-081>083-085>088-291100-
SOUTHWEST INDIANA

CITY           SKY/WX    TMP DP  RH WIND       PRES   REMARKS
EVANSVILLE     CLOUDY    63  61  93 SW6       29.93R
HUNTINGBURG *+ CLOUDY    63  62  97 S6        29.93R FOG
WASHINGTON +   CLOUDY    63  56  77 SW8       29.90R

$$

INZ062-063-066-070>080-084-089>092-291100-
SOUTH CENTRAL AND SOUTHEAST INDIANA

CITY           SKY/WX    TMP DP  RH WIND       PRES   REMARKS
BEDFORD +      CLOUDY    59  57  94 CALM      29.91R
BLOOMINGTON    CLOUDY    61  56  83 SW6       29.90R
MADISON *+     CLOUDY    61  59  94 S3        29.93R
NORTH VERNON + CLOUDY    59  59 100 S6        29.90R FOG
SEYMOUR +      CLOUDY    63  61  94 CALM      29.90R

$$




USA.gov is the U.S. government's official web portal to all federal, state and local government web resources and services.